219P/LINEAR (2024)

Japanese version
Home page
Updated on February 29, 2024

---------------------------------------------------------------------

* Profile

* Pictures

* Orbital Elements

Epoch 2024 Mar. 31.0 TT = JDT 2460400.5
T 2024 Feb. 13.83734 TT                                 Rudenko
q   2.3548463            (2000.0)            P               Q
n   0.14162332     Peri.  107.62979     +0.91598485     +0.36990949
a   3.6451287      Node   230.95310     -0.39972671     +0.87468934
e   0.3539744      Incl.   11.53999     +0.03450091     +0.31318610
P   6.96
>From 1130 observations 2002 June 5-2023 Nov. 13, mean residual 0".8.
     Nongravitational parameters A1 = +0.89, A2 = -0.1106.

* Finding Charts

* Magnitudes Graph

        m1 = 7.3 + 5 log d + 20 log r(t + 70)

---------------------------------------------------------------------

The orbital elements are published on M.P.E.C. 2024-D126.
The charts are made with StellaNavigator Ver.10 (AstroArts).
The magnitudes graphs are made with Comet for Windows.

---------------------------------------------------------------------

Copyright(C) Seiichi Yoshida (comet@aerith.net). All rights reserved.